Location: Rounton
(54.4000°N, 1.3500°W)
Time: 12:37:00
(UTC+00:00)

Transit 2A - Pass Details

Date: 04 December 2021
Orbit: 591 x 967 km, 66.7° (Epoch: 17 January)

Event Time Altitude Azimuth Distance (km) Brightness Sun altitude
Rises 00:20:14 0° 202° (SSW) 3,338 - -57.5°
Reaches altitude 10° 00:22:36 10° 198° (SSW) 2,463 - -57.4°
Maximum altitude 00:28:13 57° 122° (ESE) 1,060 - -57.3°
Drops below altitude 10° 00:34:20 10° 46° (NE) 2,675 - -57.0°
Exits shadow 00:36:48 - 43° (NE) 3,576 9.9 -56.9°
Sets 00:37:00 0° 43° (NE) 3,648 9.9 -56.9°
